Location: Unspecified
(48.5670°N, 0.0000°E)
Time: 02:30:33
(UTC+00:00)

Transit 4A - Pass Details

Date: 29 August 2019
Orbit: 865 x 980 km, 66.8° (Epoch: 16 September)

Event Time Altitude Azimuth Distance (km) Brightness Sun altitude
Rises 00:13:34 0° 325° (NW) 3,650 11.7 -31.8°
Reaches altitude 10° 00:16:17 10° 332° (NNW) 2,686 10.9 -31.8°
Maximum altitude 00:22:16 45° 44° (NE) 1,255 8.8 -31.7°
Enters shadow 00:23:45 38° 80° (E) 1,380 8.8 -31.7°
